Home   Weather   Barranquilla   Past weeks

Flag for Colombia Past Weather in Barranquilla, Colombia — Yesterday and Last 2 Weeks

Now
79 °F

Fog.


Feels Like: 83 °F
Forecast: 78 / 89 °F
Wind: 3 mph from Northeast

Location: Barranquilla / Ernestocortissoz

Current Time: Dec 11, 2016 at 9:11:53 am

Latest Report: Dec 11, 2016 at 8:00 am


Visibility: 3 mi

Pressure: 29.88 "Hg

Humidity: 94%

Dew Point: 77 °F

Location of BarranquillaLocation

Past Weather in Barranquilla — Graph

°F

Barranquilla Temperature Yesterday

Maximum temperature yesterday: 88 °F (at 11:00 am)
Minimum temperature yesterday: 75 °F (at 4:00 am)
Average temperature yesterday: 81 °F

High & Low Weather Summary for the Past Weeks

 TemperatureHumidityPressure
High91 °F (Dec 1, 1:00 pm)100% (Nov 26, 12:00 pm)29.93 "Hg (Nov 26, 12:00 pm)
Low75 °F (Nov 26, 12:00 pm)63% (Dec 1, 1:00 pm)29.72 "Hg (Nov 27, 4:00 pm)
Average82 °F87%29.82 "Hg
* Reported Nov 26 8:00 am — Dec 11 8:00 am, Barranquilla, Weather by CustomWeather, © 2016

Note: Actual official high and low records may vary slightly from our data, if they occured in-between our weather recording intervals... More about our weather records

Advertising

Barranquilla Weather History for the Previous 24 Hours

Scroll right to see more
 ConditionsComfort  
Time TempWeatherWind HumidityBarometerVisibility
8:00 am
Sun, Dec 11
79 °FFog.3 mph94%29.88 "Hg3 mi
7:00 am77 °FFog.5 mph100%29.84 "Hg1 mi
6:00 am77 °FFog.3 mph100%29.82 "Hg2 mi
5:00 am77 °FPassing clouds.6 mph94%29.81 "HgN/A
4:00 am77 °FPassing clouds.3 mph94%29.78 "HgN/A
3:00 am77 °FPassing clouds.3 mph100%29.77 "HgN/A
2:00 am77 °FPassing clouds.No wind94%29.77 "HgN/A
1:00 am77 °FPassing clouds.3 mph94%29.78 "HgN/A
12:00 am81 °FPassing clouds.2 mph84%29.80 "HgN/A
11:00 pm
Sat, Dec 10
81 °FPassing clouds.12 mph84%29.82 "HgN/A
10:00 pm82 °FPassing clouds.8 mph79%29.83 "HgN/A
9:00 pm82 °FPassing clouds.10 mph84%29.83 "HgN/A
8:00 pm81 °FPassing clouds.3 mph84%29.82 "HgN/A
7:00 pm79 °FPassing clouds.3 mph89%29.80 "HgN/A
6:00 pm81 °FPartly cloudy.5 mph79%29.80 "HgN/A
5:00 pm84 °FBroken clouds.5 mph74%29.79 "HgN/A
4:00 pm88 °FBroken clouds.5 mph66%29.77 "HgN/A
3:00 pm88 °FBroken clouds.6 mph70%29.78 "HgN/A
1:00 pm84 °FScattered showers. Partly sunny.6 mph74%29.83 "Hg5 mi
12:00 pm86 °FPartly sunny.3 mph70%29.86 "HgN/A
11:00 am88 °FPartly sunny.6 mph70%29.88 "HgN/A
10:00 am82 °FScattered clouds.5 mph79%29.91 "HgN/A
9:00 am82 °FPartly sunny.3 mph79%29.92 "HgN/A
Weather by CustomWeather, © 2016

See weather overviewHow to use our weather pages